Vertical_Velocity
4 -4 -35 28 14 4 5 3 -4 0 7 -4 3 12 7 7 -8 2 4 -4 -9 -5 5 -2 2 -1 -0 1 1 4 -1 6 1 4 4 1 2 1 -0 -1 -2 -0 1 1
-6 -53 42 6 -1 4 7 -2 -1 4 4 -14 3 1 -0 -3 -0 1 3 -8 -1 -6 -2 2 3 3 0 1 2 3 5 -0 5 -0 1 -0 -2 -1 -2 1 -0 -1 1 -0
-4 24 22 8 9 -2 10 -13 12 9 3 -2 4 -15 -2 4 2 -8 -8 -7 -5 10 2 0 1 2 2 -0 3 -1 3 -3 -1 -1 -4 1 0 -0 -1 1 0 1 1 1
-22 54 -5 -4 -12 1 -10 28 5 5 2 -9 7 -68 -35 4 -12 -17 -5 2 7 4 9 8 1 -2 2 4 -9 -2 2 0 2 0 1 1 2 -2 4 -2 -0 1 2 1
-6 20 2 -5 7 11 -4 -1 9 13 3 11 -26 -41 -9 5 -18 -18 17 5 11 11 7 4 5 0 -1 0 -2 1 -1 -2 3 2 0 -0 -1 3 2 -1 -1 -1 0 1
-6 3 2 -12 17 -1 15 10 4 7 8 -42 20 -15 -39 -11 1 15 14 17 10 7 1 3 2 4 6 -1 -8 -6 -1 -2 -2 -2 -4 1 0 1 5 2 -1 2 -1 -1
26 -8 6 0 2 8 -1 4 -1 -1 -15 -56 44 -16 -81 20 -10 4 12 17 2 2 9 9 7 4 7 7 0 2 0 -2 -1 0 -3 1 4 -2 5 1 1 2 -1 -1
-1 8 9 8 1 5 8 14 9 -4 -17 7 30 -95 -91 12 22 5 -3 3 13 8 7 6 4 6 6 10 1 -2 3 -3 1 -5 3 -3 -0 1 4 1 2 3 1 -4
3 3 2 7 -2 3 -5 -32 24 6 4 -1 3 -43 1 8 21 10 13 11 -1 -3 -12 -11 -15 -7 -6 -0 3 -9 -5 -5 -3 4 1 1 2 9 8 2 -2 -2 -3 1
-4 7 -2 7 4 10 -9 12 4 -1 -10 -6 -20 -31 -68 16 10 17 17 16 12 8 12 2 -4 -0 3 6 0 -6 -8 -0 -5 -2 -0 3 2 4 5 5 3 4 -1 -5
1 2 4 12 6 9 5 7 1 13 -3 -2 -19 -39 -16 13 -12 -9 -4 -2 1 -2 2 5 3 2 2 1 2 4 4 -1 -2 -3 4 1 3 1 3 -2 3 6 -5 3
-5 -2 8 -1 -3 7 5 8 8 9 4 17 -0 -27 -9 -1 -5 0 -4 3 4 4 -3 -0 1 4 3 -3 -3 -3 -1 3 3 3 3 5 4 7 4 1 2 2 1 3
-6 -6 1 6 2 2 2 4 -1 2 -5 -8 16 -15 -8 -7 -4 -0 2 -0 2 -1 -1 2 4 3 5 0 -1 -3 -4 1 -2 -3 7 2 1 4 -0 5 0 -5 -0 2
0 -2 0 3 3 -4 5 4 3 4 -4 -2 -16 -19 7 1 4 1 -1 -0 -2 -0 5 5 5 3 0 3 3 0 -2 -1 -1 -4 4 0 -0 4 2 -4 -4 2 4 5
-1 5 3 -2 4 -6 2 1 -3 -7 9 -12 8 -25 0 -9 3 3 4 -2 2 5 6 4 4 3 3 -0 2 3 1 -0 -4 1 4 4 1 4 -0 -5 3 5 3 3
0 2 0 -5 -3 -4 -7 -8 -6 -1 -2 -9 7 -24 -8 29 10 2 -11 -2 4 5 6 5 5 10 9 4 5 1 4 3 1 -2 -0 3 4 3 1 -7 6 1 5 3
-4 -2 -5 -3 0 -7 -39 14 9 0 1 10 2 -19 1 -8 -2 2 -6 -16 1 8 8 1 -0 0 3 -0 1 1 1 1 2 -1 0 4 4 7 1 3 2 6 1 -3
3 1 -4 -6 -3 -23 18 -0 4 2 2 9 -16 -30 -10 -9 9 -4 3 2 -4 -9 -8 3 6 0 5 3 3 4 -1 -0 -2 2 5 9 10 10 3 -1 3 6 3 2
-0 -3 -9 -11 -3 -0 17 10 10 6 -14 -15 15 -3 -35 -3 23 -21 12 6 -8 -4 -6 -5 0 10 10 1 5 -3 2 2 4 7 3 5 5 7 1 2 13 8 12 3
2 3 -4 -0 -6 -16 9 9 -8 -6 -21 -3 -8 -4 -24 3 -27 -7 7 -10 -9 -11 -6 -8 1 -8 -0 8 -3 -4 -3 2 3 3 3 1 3 9 4 -1 -3 -0 -0 3
6 3 0 -1 -12 -5 20 7 -3 -10 4 -0 -6 -4 -7 -9 -18 -15 7 0 -4 -3 -6 -3 -1 -0 -1 6 6 -3 1 4 4 1 2 1 3 7 2 12 -10 -6 -4 -2
-1 -4 3 -6 -5 -8 -0 1 -10 -7 5 -4 2 -4 -5 -2 -3 -8 6 -0 -4 -8 -2 -0 -8 5 7 7 -5 -0 4 9 2 -2 -0 5 3 6 2 2 -5 1 6 8
-9 -11 -9 -4 5 1 3 -4 -4 -10 -10 4 -12 9 -6 -4 1 -8 -7 11 0 0 3 1 -4 -4 3 15 -17 -3 21 3 9 6 4 -2 -0 3 2 3 4 -4 -1 2
-1 -2 -2 -29 24 0 0 9 -2 -4 -7 -1 -2 -1 -3 -8 6 -2 -6 4 -3 3 -2 5 2 -9 -1 -2 -3 -5 0 0 -4 4 2 1 3 3 -1 2 -1 -2 1 3
11 -3 -3 -6 18 -1 14 6 -7 2 1 -1 -1 -6 -5 -6 5 -4 1 8 -2 -6 0 -2 -3 -1 -6 -0 -5 2 -3 -0 -9 -4 -2 4 4 4 -3 6 5 -3 8 -0
3 1 -6 -3 -4 -14 15 -4 -2 -5 -3 -1 -3 2 1 -7 -2 -1 -6 -2 -2 -2 0 1 -2 -9 -0 1 0 2 1 1 -5 -8 -8 3 5 6 -6 8 1 -10 1 8
Height
5653 5658 5675 5695 5697 5704 5708 5713 5718 5724 5732 5735 5743 5746 5753 5761 5768 5775 5780 5783 5788 5795 5802 5805 5807 5810 5813 5815 5817 5820 5822 5828 5829 5831 5831 5832 5832 5833 5835 5834 5834 5835 5837 5838
5633 5647 5680 5676 5680 5685 5691 5698 5706 5711 5716 5723 5726 5730 5740 5749 5760 5766 5771 5776 5780 5784 5792 5795 5797 5800 5802 5805 5808 5810 5813 5816 5819 5821 5823 5823 5825 5826 5826 5825 5825 5826 5828 5829
5622 5659 5648 5657 5663 5671 5680 5687 5694 5700 5702 5708 5710 5715 5727 5739 5747 5753 5762 5770 5773 5776 5779 5783 5785 5788 5790 5794 5798 5800 5802 5804 5806 5809 5810 5814 5815 5817 5818 5817 5816 5817 5818 5818
5610 5634 5633 5640 5648 5660 5666 5678 5678 5683 5684 5691 5692 5700 5710 5729 5734 5743 5756 5761 5764 5766 5769 5771 5774 5778 5780 5782 5784 5787 5791 5793 5795 5797 5800 5802 5805 5807 5809 5808 5807 5808 5808 5808
5610 5614 5621 5625 5647 5644 5661 5660 5663 5666 5668 5669 5680 5686 5709 5709 5722 5736 5747 5749 5753 5755 5756 5758 5761 5765 5769 5770 5773 5775 5778 5782 5785 5787 5789 5791 5794 5797 5798 5798 5799 5799 5798 5798
5592 5598 5606 5622 5626 5633 5642 5644 5646 5650 5651 5653 5681 5672 5688 5702 5717 5724 5731 5736 5737 5740 5743 5746 5750 5752 5754 5757 5761 5764 5767 5771 5774 5776 5779 5783 5785 5788 5790 5790 5789 5789 5789 5789
5575 5583 5596 5608 5613 5619 5623 5627 5631 5635 5635 5648 5657 5654 5681 5692 5701 5708 5713 5718 5721 5725 5729 5735 5738 5741 5744 5745 5747 5751 5756 5760 5763 5765 5769 5773 5776 5777 5780 5780 5780 5780 5780 5780
5563 5576 5582 5593 5602 5609 5614 5618 5619 5620 5627 5643 5629 5644 5670 5680 5682 5691 5697 5703 5707 5712 5714 5718 5722 5726 5730 5732 5736 5741 5745 5750 5751 5754 5757 5762 5765 5767 5768 5769 5771 5771 5772 5771
5553 5563 5571 5578 5587 5594 5600 5598 5619 5615 5619 5615 5616 5638 5658 5667 5670 5675 5683 5686 5688 5691 5697 5703 5706 5711 5715 5719 5722 5727 5732 5737 5739 5742 5745 5749 5751 5755 5757 5760 5761 5762 5762 5761
5541 5553 5561 5567 5574 5581 5585 5596 5599 5596 5599 5602 5608 5622 5639 5654 5653 5658 5664 5668 5674 5680 5686 5691 5694 5699 5702 5705 5708 5711 5714 5720 5724 5728 5731 5734 5738 5742 5746 5749 5751 5752 5752 5748
5533 5541 5552 5557 5560 5566 5574 5579 5583 5587 5589 5592 5599 5605 5626 5631 5635 5639 5641 5649 5658 5665 5671 5676 5680 5684 5687 5690 5694 5698 5702 5706 5709 5714 5718 5721 5724 5728 5731 5735 5738 5740 5738 5738
5525 5532 5539 5543 5547 5553 5558 5564 5569 5571 5579 5582 5584 5595 5607 5614 5620 5623 5626 5634 5641 5650 5656 5661 5665 5668 5671 5674 5678 5684 5688 5692 5696 5700 5704 5708 5710 5713 5715 5719 5725 5726 5726 5726
5521 5524 5529 5534 5538 5541 5544 5549 5553 5556 5562 5571 5572 5588 5593 5601 5603 5605 5609 5617 5623 5630 5637 5644 5648 5652 5655 5660 5664 5668 5673 5677 5681 5685 5690 5694 5697 5698 5702 5704 5710 5711 5712 5713
5516 5518 5519 5524 5526 5528 5534 5537 5541 5543 5548 5554 5558 5578 5586 5591 5591 5591 5594 5599 5605 5612 5619 5625 5631 5636 5639 5644 5649 5653 5657 5662 5667 5671 5676 5681 5683 5686 5689 5690 5694 5696 5698 5700
5510 5512 5510 5513 5517 5517 5521 5525 5529 5533 5538 5536 5553 5552 5575 5584 5581 5579 5577 5582 5589 5596 5600 5605 5612 5618 5623 5628 5633 5638 5643 5648 5653 5658 5663 5667 5670 5673 5676 5677 5680 5683 5686 5688
5501 5504 5502 5507 5507 5508 5508 5515 5523 5525 5525 5523 5532 5533 5559 5569 5552 5562 5564 5564 5571 5579 5586 5590 5597 5602 5606 5611 5617 5623 5627 5633 5639 5644 5648 5653 5656 5659 5662 5665 5668 5671 5672 5675
5497 5497 5496 5499 5497 5496 5501 5517 5509 5509 5511 5513 5510 5523 5536 5538 5543 5554 5548 5551 5555 5561 5567 5573 5578 5586 5591 5596 5603 5608 5613 5618 5625 5630 5635 5639 5643 5645 5647 5651 5655 5657 5661 5665
5494 5492 5490 5491 5491 5490 5497 5496 5496 5496 5498 5496 5496 5510 5521 5524 5526 5532 5532 5537 5541 5543 5546 5552 5559 5568 5573 5580 5586 5592 5597 5603 5609 5616 5620 5623 5628 5632 5634 5638 5643 5647 5650 5653
5489 5487 5485 5485 5484 5483 5485 5484 5482 5475 5481 5489 5486 5487 5495 5505 5502 5506 5519 5517 5519 5524 5529 5533 5537 5545 5555 5562 5567 5572 5581 5588 5595 5598 5603 5608 5613 5618 5622 5626 5631 5634 5637 5640
5483 5481 5481 5479 5476 5474 5477 5475 5471 5472 5477 5467 5470 5476 5480 5485 5478 5495 5495 5496 5501 5504 5508 5514 5520 5524 5531 5542 5547 5556 5565 5571 5577 5582 5586 5592 5598 5603 5608 5612 5617 5621 5624 5627
5477 5475 5475 5472 5469 5470 5470 5468 5465 5465 5466 5462 5463 5462 5463 5462 5461 5471 5474 5475 5477 5483 5488 5492 5497 5505 5512 5516 5527 5537 5547 5554 5559 5565 5572 5577 5583 5589 5593 5597 5603 5607 5611 5613
5472 5470 5468 5466 5464 5462 5462 5461 5458 5456 5453 5453 5453 5452 5450 5450 5451 5454 5455 5453 5456 5459 5466 5471 5475 5483 5490 5495 5501 5515 5527 5534 5541 5549 5556 5563 5568 5574 5578 5583 5586 5591 5595 5598
5463 5464 5462 5462 5458 5458 5453 5449 5447 5444 5443 5443 5442 5443 5440 5440 5439 5439 5439 5439 5438 5439 5443 5449 5451 5459 5466 5473 5479 5489 5504 5510 5521 5530 5538 5546 5553 5559 5563 5567 5571 5576 5580 5583
5456 5457 5454 5453 5455 5452 5447 5445 5440 5437 5434 5432 5432 5432 5430 5428 5427 5427 5427 5426 5426 5428 5428 5429 5429 5434 5442 5451 5457 5466 5477 5486 5499 5511 5521 5529 5535 5542 5546 5552 5555 5560 5565 5568
5451 5448 5446 5447 5448 5443 5441 5437 5434 5432 5427 5424 5422 5420 5418 5416 5416 5415 5416 5415 5415 5416 5416 5414 5415 5417 5421 5428 5434 5443 5454 5465 5478 5490 5501 5512 5519 5526 5532 5538 5541 5546 5552 5555
5441 5440 5439 5440 5439 5435 5435 5430 5426 5423 5421 5418 5414 5411 5407 5406 5406 5406 5407 5406 5405 5404 5403 5401 5400 5401 5406 5406 5412 5420 5431 5445 5459 5469 5481 5494 5502 5509 5516 5523 5527 5533 5539 5543